contact:dominique.lefevre@mio.osupytheas.fr, maurice.libes@osupytheas.fr, didier.mallarino@osupytheas.fr
Project:EMSO http://www.emso-fr.org/EMSO-France
Depth: 2436.0 m
Title:EMSO Ligure Ouest : Data MII capteur AQUADOPP
Date,Latitude,Longitude,X_East,Y_North,Z_Up,Amplitude_X,Amplitude_Y,Amplitude_Z,Batterie,SoundSpeed,Heading,Pitch,Roll,Pressure,TIS,Speed,Direction
, degrees North, degrees East, m.s-1, m.s-1,m.s-1, 1, 1, 1, Volt, m.s-1, degree, degree, degree, dbar, degree_C, m.s-1, degree
2020-02-17T00:04:03,42.805,6.029,0.056,0.017,-0.017,104.0,109.0,100.0,13.4,1505.2,323.6,-0.7,1.9,2470.321,13.3,0.058,73.1
2020-02-17T00:07:03,42.805,6.029,0.035,0.0,-0.014,104.0,111.0,100.0,13.3,1505.3,328.3,-0.7,1.8,2470.336,13.31,0.035,90.0
2020-02-17T00:10:03,42.805,6.029,0.044,0.018,-0.021,104.0,111.0,101.0,13.4,1505.3,325.2,-0.7,1.8,2470.331,13.32,0.047,67.8
2020-02-17T00:13:03,42.805,6.029,0.032,0.005,-0.022,104.0,109.0,101.0,13.4,1505.3,328.5,-0.7,1.8,2470.312,13.32,0.032,81.1
2020-02-17T00:16:03,42.805,6.029,0.04,0.01,-0.019,103.0,109.0,100.0,13.3,1505.3,326.5,-0.7,1.8,2470.353,13.32,0.041,76.0
2020-02-17T00:19:03,42.805,6.029,0.025,0.006,-0.026,104.0,111.0,101.0,13.4,1505.3,328.1,-0.7,1.9,2470.331,13.32,0.025,76.5
2020-02-17T00:22:03,42.805,6.029,0.002,0.021,-0.009,103.0,109.0,102.0,13.4,1505.3,326.3,-0.7,1.8,2470.342,13.32,0.021,5.4
2020-02-17T00:25:03,42.805,6.029,0.045,0.018,0.03,104.0,110.0,100.0,13.4,1505.3,328.4,-0.7,1.9,2470.361,13.32,0.048,68.2
2020-02-17T00:28:03,42.805,6.029,0.048,0.013,-0.006,103.0,112.0,101.0,13.4,1505.3,323.6,-0.7,1.9,2470.32,13.32,0.049,74.8
2020-02-17T00:31:03,42.805,6.029,0.048,0.002,-0.016,103.0,110.0,101.0,13.3,1505.3,325.9,-0.7,1.8,2470.303,13.32,0.048,87.6
2020-02-17T00:34:03,42.805,6.029,0.027,0.017,-0.017,104.0,112.0,101.0,13.4,1505.3,325.3,-0.7,1.8,2470.353,13.32,0.031,57.8
2020-02-17T00:37:03,42.805,6.029,0.05,-0.003,-0.039,103.0,109.0,102.0,13.4,1505.3,326.5,-0.7,1.9,2470.334,13.32,0.05,93.4
2020-02-17T00:40:03,42.805,6.029,0.05,0.005,-0.051,104.0,110.0,99.0,13.4,1505.3,325.8,-0.7,1.8,2470.321,13.32,0.05,84.3
2020-02-17T00:43:03,42.805,6.029,0.03,0.013,-0.021,106.0,108.0,100.0,13.3,1505.3,323.0,-0.7,1.8,2470.321,13.32,0.032,66.6
2020-02-17T00:46:03,42.805,6.029,0.031,0.015,-0.041,103.0,110.0,101.0,13.4,1505.3,323.7,-0.7,1.9,2470.344,13.32,0.034,64.2
2020-02-17T00:49:03,42.805,6.029,0.035,-0.012,0.003,103.0,108.0,101.0,13.3,1505.3,328.2,-0.7,1.8,2470.368,13.32,0.037,108.9
2020-02-17T00:52:03,42.805,6.029,0.057,0.015,-0.01,103.0,107.0,101.0,13.4,1505.3,324.4,-0.7,1.8,2470.375,13.32,0.058,75.3
2020-02-17T00:55:03,42.805,6.029,0.063,-0.002,-0.02,105.0,106.0,100.0,13.4,1505.3,326.8,-0.7,1.9,2470.354,13.32,0.063,91.8
2020-02-17T00:58:03,42.805,6.029,0.041,-0.001,-0.019,103.0,109.0,101.0,13.4,1505.3,326.2,-0.7,1.9,2470.383,13.32,0.041,91.4
2020-02-17T01:04:03,42.805,6.029,0.016,0.026,0.014,106.0,112.0,102.0,13.3,1505.2,328.1,-0.7,1.8,2470.369,13.3,0.03,31.6
2020-02-17T01:07:02,42.805,6.029,0.025,0.008,-0.044,105.0,109.0,101.0,13.4,1505.3,326.3,-0.7,1.8,2470.363,13.31,0.026,72.3
2020-02-17T01:10:03,42.805,6.029,0.038,-0.002,-0.062,103.0,109.0,101.0,13.3,1505.3,324.2,-0.7,1.8,2470.333,13.32,0.038,93.0
2020-02-17T01:13:03,42.805,6.029,0.04,0.01,-0.013,104.0,109.0,101.0,13.3,1505.3,325.9,-0.7,1.8,2470.398,13.32,0.041,76.0
2020-02-17T01:16:03,42.805,6.029,0.042,0.001,-0.012,104.0,109.0,101.0,13.4,1505.3,325.9,-0.7,1.8,2470.341,13.32,0.042,88.6
2020-02-17T01:19:03,42.805,6.029,0.034,0.019,-0.007,104.0,109.0,101.0,13.4,1505.3,324.8,-0.7,1.8,2470.373,13.32,0.038,60.8
2020-02-17T01:22:03,42.805,6.029,0.042,0.028,-0.021,103.0,110.0,101.0,13.4,1505.3,327.2,-0.7,1.9,2470.375,13.32,0.05,56.3
2020-02-17T01:25:03,42.805,6.029,0.031,0.015,-0.007,103.0,109.0,100.0,13.4,1505.3,325.1,-0.7,1.8,2470.309,13.32,0.034,64.2
2020-02-17T01:28:03,42.805,6.029,0.049,0.009,-0.013,104.0,108.0,100.0,13.4,1505.3,324.5,-0.7,1.8,2470.309,13.32,0.049,79.6
2020-02-17T01:31:03,42.805,6.029,0.032,0.008,0.0,104.0,109.0,102.0,13.4,1505.3,323.5,-0.7,1.8,2470.308,13.32,0.032,76.0
2020-02-17T01:34:03,42.805,6.029,0.049,0.019,-0.032,104.0,109.0,100.0,13.3,1505.3,325.9,-0.7,1.8,2470.354,13.32,0.052,68.8
2020-02-17T01:37:03,42.805,6.029,0.014,0.007,-0.033,105.0,109.0,100.0,13.4,1505.3,326.9,-0.7,1.8,2470.333,13.32,0.015,63.4
2020-02-17T01:40:03,42.805,6.029,0.014,-0.006,-0.022,104.0,108.0,102.0,13.4,1505.3,325.1,-0.7,1.9,2470.324,13.32,0.015,113.2
2020-02-17T01:43:03,42.805,6.029,0.05,0.01,-0.017,104.0,109.0,101.0,13.4,1505.3,324.6,-0.7,1.8,2470.317,13.32,0.05,78.7
2020-02-17T01:46:03,42.805,6.029,0.012,0.001,-0.028,103.0,109.0,102.0,13.3,1505.3,327.9,-0.7,1.8,2470.371,13.32,0.012,85.2
2020-02-17T01:49:03,42.805,6.029,0.009,0.005,-0.051,103.0,109.0,101.0,13.4,1505.3,325.7,-0.7,1.8,2470.369,13.32,0.01,60.9
2020-02-17T01:52:03,42.805,6.029,0.02,-0.002,-0.045,103.0,110.0,101.0,13.4,1505.3,328.1,-0.7,1.9,2470.328,13.32,0.02,95.7
2020-02-17T01:55:03,42.805,6.029,0.0,0.003,-0.056,104.0,109.0,101.0,13.3,1505.3,325.9,-0.7,1.9,2470.342,13.32,0.003,0.0
2020-02-17T01:58:03,42.805,6.029,0.011,-0.003,-0.042,103.0,110.0,101.0,13.3,1505.3,326.8,-0.7,1.9,2470.327,13.32,0.011,105.3
2020-02-17T02:04:03,42.805,6.029,0.032,0.0,-0.057,105.0,109.0,100.0,13.4,1505.2,323.7,-0.8,1.8,2470.384,13.3,0.032,90.0
2020-02-17T02:07:03,42.805,6.029,0.029,0.01,-0.019,104.0,110.0,100.0,13.3,1505.3,325.5,-0.8,1.8,2470.389,13.31,0.03,71.0
2020-02-17T02:10:03,42.805,6.029,0.02,0.024,-0.055,104.0,110.0,101.0,13.4,1505.3,327.9,-0.7,1.8,2470.335,13.32,0.031,39.8
2020-02-17T02:13:03,42.805,6.029,0.023,-0.002,-0.029,103.0,109.0,101.0,13.3,1505.3,325.0,-0.7,1.9,2470.383,13.32,0.023,95.0
2020-02-17T02:16:03,42.805,6.029,0.025,-0.015,-0.029,103.0,110.0,101.0,13.3,1505.3,327.0,-0.7,1.8,2470.338,13.32,0.029,121.0
2020-02-17T02:19:03,42.805,6.029,0.012,0.022,-0.043,103.0,110.0,100.0,13.4,1505.3,323.6,-0.7,1.9,2470.325,13.32,0.025,28.6
2020-02-17T02:22:03,42.805,6.029,0.049,0.015,-0.021,103.0,110.0,101.0,13.3,1505.3,327.7,-0.7,1.8,2470.339,13.32,0.051,73.0
2020-02-17T02:25:03,42.805,6.029,0.034,0.012,0.0,104.0,110.0,101.0,13.4,1505.3,326.5,-0.7,1.9,2470.356,13.32,0.036,70.6
2020-02-17T02:28:03,42.805,6.029,0.029,0.003,-0.055,103.0,111.0,101.0,13.4,1505.3,323.6,-0.8,1.8,2470.371,13.32,0.029,84.1
2020-02-17T02:31:03,42.805,6.029,0.026,0.006,-0.064,104.0,110.0,101.0,13.4,1505.3,327.4,-0.7,1.8,2470.362,13.32,0.026,77.0
2020-02-17T02:34:03,42.805,6.029,0.023,0.002,-0.027,104.0,111.0,100.0,13.4,1505.3,326.9,-0.7,1.8,2470.318,13.32,0.023,85.0
2020-02-17T02:37:03,42.805,6.029,0.022,0.005,-0.015,103.0,109.0,101.0,13.4,1505.3,324.1,-0.7,1.8,2470.346,13.32,0.022,77.2
2020-02-17T02:40:03,42.805,6.029,0.016,0.004,-0.032,103.0,109.0,101.0,13.4,1505.3,323.6,-0.7,1.9,2470.327,13.32,0.016,76.0
2020-02-17T02:43:03,42.805,6.029,0.011,-0.004,-0.058,105.0,108.0,101.0,13.4,1505.3,328.3,-0.7,1.8,2470.299,13.32,0.011,110.0
2020-02-17T02:46:03,42.805,6.029,0.024,-0.002,-0.028,104.0,111.0,100.0,13.4,1505.3,327.6,-0.7,1.8,2470.352,13.32,0.024,94.8
2020-02-17T02:49:03,42.805,6.029,0.047,0.013,-0.001,104.0,110.0,101.0,13.3,1505.3,328.1,-0.7,1.8,2470.357,13.32,0.048,74.5
2020-02-17T02:52:03,42.805,6.029,0.03,0.003,-0.007,103.0,110.0,101.0,13.4,1505.3,327.9,-0.7,1.8,2470.346,13.32,0.03,84.3
2020-02-17T02:55:03,42.805,6.029,0.026,0.013,-0.029,104.0,109.0,101.0,13.4,1505.3,324.8,-0.7,1.8,2470.324,13.32,0.029,63.4
2020-02-17T02:58:03,42.805,6.029,0.037,-0.005,-0.064,105.0,109.0,101.0,13.4,1505.3,327.1,-0.7,1.8,2470.351,13.32,0.037,97.7
2020-02-17T03:04:03,42.805,6.029,0.025,-0.002,-0.041,102.0,109.0,100.0,13.4,1505.2,325.2,-0.7,1.8,2470.368,13.3,0.025,94.6
2020-02-17T03:07:03,42.805,6.029,0.026,0.003,-0.022,105.0,108.0,102.0,13.3,1505.3,327.9,-0.7,1.8,2470.353,13.31,0.026,83.4
2020-02-17T03:10:03,42.805,6.029,0.027,0.009,-0.012,103.0,110.0,101.0,13.4,1505.3,325.4,-0.7,1.8,2470.35,13.32,0.028,71.6
2020-02-17T03:13:03,42.805,6.029,0.027,0.011,-0.008,103.0,110.0,100.0,13.4,1505.3,324.3,-0.7,1.8,2470.386,13.32,0.029,67.8
2020-02-17T03:16:03,42.805,6.029,0.029,0.022,0.001,103.0,111.0,101.0,13.4,1505.3,324.1,-0.7,1.8,2470.384,13.32,0.036,52.8
2020-02-17T03:19:03,42.805,6.029,0.028,0.004,-0.014,103.0,110.0,101.0,13.4,1505.3,328.0,-0.7,1.8,2470.332,13.32,0.028,81.9
2020-02-17T03:25:03,42.805,6.029,0.021,0.015,-0.052,104.0,111.0,101.0,13.4,1505.2,326.5,-0.8,1.8,2470.396,13.3,0.025,54.5
2020-02-17T03:28:03,42.805,6.029,0.017,0.012,-0.046,103.0,111.0,101.0,13.4,1505.3,324.4,-0.7,1.8,2470.399,13.31,0.02,54.8
2020-02-17T03:31:03,42.805,6.029,0.018,-0.009,-0.017,104.0,111.0,101.0,13.3,1505.3,327.0,-0.7,1.8,2470.378,13.32,0.02,116.6
2020-02-17T03:34:03,42.805,6.029,0.035,0.012,0.013,103.0,110.0,101.0,13.3,1505.3,325.8,-0.7,1.9,2470.401,13.32,0.037,71.1
2020-02-17T03:37:03,42.805,6.029,0.014,0.009,-0.021,103.0,111.0,101.0,13.4,1505.3,326.6,-0.7,1.8,2470.363,13.32,0.016,57.3
2020-02-17T03:40:03,42.805,6.029,0.026,0.012,-0.03,103.0,111.0,100.0,13.4,1505.3,323.4,-0.7,1.8,2470.361,13.32,0.028,65.2
2020-02-17T03:43:03,42.805,6.029,0.032,0.014,-0.031,104.0,113.0,100.0,13.3,1505.3,327.9,-0.7,1.8,2470.345,13.32,0.034,66.4
2020-02-17T03:46:03,42.805,6.029,0.031,0.001,-0.034,104.0,111.0,101.0,13.4,1505.3,324.9,-0.7,1.9,2470.391,13.32,0.031,88.2
2020-02-17T03:49:03,42.805,6.029,0.058,0.015,-0.019,103.0,110.0,101.0,13.4,1505.3,323.5,-0.7,1.8,2470.354,13.32,0.059,75.5
2020-02-17T03:52:03,42.805,6.029,0.021,0.009,-0.023,103.0,109.0,100.0,13.4,1505.3,325.2,-0.7,1.8,2470.372,13.32,0.022,66.8
2020-02-17T03:55:03,42.805,6.029,0.032,0.013,-0.007,104.0,112.0,101.0,13.4,1505.3,322.8,-0.7,1.8,2470.331,13.32,0.034,67.9
2020-02-17T03:58:03,42.805,6.029,0.024,0.009,-0.036,104.0,110.0,101.0,13.4,1505.3,326.2,-0.7,1.8,2470.33,13.32,0.025,69.4
2020-02-17T04:04:03,42.805,6.029,0.011,0.015,-0.047,104.0,111.0,101.0,13.4,1505.2,327.3,-0.8,1.8,2470.393,13.3,0.018,36.3
2020-02-17T04:07:03,42.805,6.029,0.036,0.008,-0.012,104.0,112.0,101.0,13.3,1505.3,323.4,-0.7,1.8,2470.364,13.31,0.036,77.5
2020-02-17T04:10:03,42.805,6.029,0.022,-0.001,-0.009,103.0,113.0,101.0,13.4,1505.3,325.8,-0.8,1.9,2470.344,13.31,0.022,92.6
2020-02-17T04:13:03,42.805,6.029,0.027,0.017,-0.012,103.0,111.0,101.0,13.3,1505.3,327.8,-0.7,1.8,2470.326,13.32,0.031,57.8
2020-02-17T04:16:03,42.805,6.029,0.024,0.026,-0.017,104.0,110.0,101.0,13.3,1505.3,323.9,-0.7,1.8,2470.317,13.32,0.035,42.7
2020-02-17T04:19:03,42.805,6.029,0.043,0.008,-0.007,104.0,114.0,100.0,13.3,1505.3,327.2,-0.7,1.8,2470.343,13.32,0.043,79.5
2020-02-17T04:22:03,42.805,6.029,0.043,0.04,-0.023,104.0,115.0,101.0,13.4,1505.3,322.7,-0.8,1.9,2470.365,13.32,0.058,47.1
2020-02-17T04:25:03,42.805,6.029,0.053,0.018,0.009,103.0,112.0,101.0,13.3,1505.3,327.0,-0.7,1.8,2470.283,13.32,0.055,71.2
2020-02-17T04:28:03,42.805,6.029,0.036,0.021,-0.006,105.0,113.0,100.0,13.4,1505.3,326.7,-0.7,1.9,2470.355,13.32,0.041,59.7
2020-02-17T04:31:03,42.805,6.029,0.044,0.03,-0.012,103.0,113.0,101.0,13.4,1505.3,326.4,-0.7,1.8,2470.35,13.32,0.053,55.7
2020-02-17T04:34:03,42.805,6.029,0.021,0.023,-0.027,104.0,111.0,101.0,13.3,1505.3,324.2,-0.7,1.9,2470.353,13.32,0.031,42.4
2020-02-17T04:37:03,42.805,6.029,0.036,0.021,-0.026,102.0,114.0,101.0,13.3,1505.3,323.8,-0.7,1.8,2470.359,13.32,0.041,59.7
2020-02-17T04:40:03,42.805,6.029,0.028,0.027,-0.024,105.0,112.0,101.0,13.4,1505.3,323.4,-0.7,1.9,2470.273,13.32,0.038,46.0
2020-02-17T04:43:03,42.805,6.029,0.043,0.022,-0.007,103.0,112.0,101.0,13.4,1505.3,327.6,-0.7,1.8,2470.356,13.32,0.048,62.9
2020-02-17T04:46:03,42.805,6.029,0.035,0.017,-0.027,104.0,111.0,101.0,13.4,1505.3,327.2,-0.7,1.8,2470.341,13.32,0.038,64.1
2020-02-17T04:49:03,42.805,6.029,0.009,0.021,-0.02,104.0,115.0,102.0,13.4,1505.3,326.2,-0.7,1.8,2470.323,13.32,0.022,23.2
2020-02-17T04:52:03,42.805,6.029,0.048,-0.001,-0.043,104.0,112.0,101.0,13.3,1505.3,325.2,-0.8,1.8,2470.35,13.32,0.048,91.2
2020-02-17T04:55:03,42.805,6.029,0.028,0.013,-0.019,105.0,115.0,102.0,13.4,1505.3,322.8,-0.7,1.8,2470.329,13.32,0.03,65.1
2020-02-17T04:58:03,42.805,6.029,0.043,0.011,-0.009,103.0,112.0,103.0,13.3,1505.3,327.9,-0.7,1.8,2470.321,13.32,0.044,75.7
2020-02-17T05:04:03,42.805,6.029,0.064,-0.006,-0.008,103.0,116.0,100.0,13.4,1505.2,327.1,-0.7,1.8,2470.38,13.3,0.064,95.4
2020-02-17T05:07:03,42.805,6.029,0.052,0.008,-0.019,105.0,113.0,102.0,13.3,1505.3,324.6,-0.7,1.8,2470.345,13.31,0.052,81.3
2020-02-17T05:10:03,42.805,6.029,0.032,0.029,-0.01,105.0,115.0,100.0,13.3,1505.3,328.0,-0.7,1.8,2470.337,13.32,0.043,47.8
2020-02-17T05:13:03,42.805,6.029,0.054,0.009,-0.017,104.0,114.0,101.0,13.3,1505.3,326.9,-0.7,1.9,2470.371,13.32,0.054,80.5
2020-02-17T05:16:03,42.805,6.029,0.054,0.004,-0.012,105.0,113.0,101.0,13.4,1505.3,326.4,-0.7,1.8,2470.302,13.32,0.054,85.8
2020-02-17T05:19:03,42.805,6.029,0.043,0.024,0.013,103.0,115.0,101.0,13.4,1505.3,324.2,-0.7,1.8,2470.331,13.32,0.049,60.8
2020-02-17T05:22:03,42.805,6.029,0.041,0.0,-0.005,103.0,117.0,101.0,13.4,1505.3,327.3,-0.7,1.8,2470.347,13.32,0.041,90.0
2020-02-17T05:25:03,42.805,6.029,0.009,0.012,-0.056,103.0,114.0,101.0,13.4,1505.3,325.8,-0.7,1.8,2470.363,13.32,0.015,36.9
2020-02-17T05:28:03,42.805,6.029,0.022,0.013,-0.04,103.0,114.0,101.0,13.3,1505.3,324.6,-0.7,1.8,2470.343,13.32,0.025,59.4
2020-02-17T05:31:03,42.805,6.029,0.045,-0.006,-0.031,103.0,115.0,101.0,13.4,1505.3,324.3,-0.7,1.8,2470.31,13.32,0.045,97.6
2020-02-17T05:34:03,42.805,6.029,0.036,0.007,-0.049,103.0,115.0,101.0,13.4,1505.3,324.1,-0.7,1.8,2470.336,13.32,0.036,79.0
2020-02-17T05:37:03,42.805,6.029,0.034,0.025,-0.005,105.0,116.0,101.0,13.4,1505.3,323.5,-0.7,1.9,2470.306,13.32,0.042,53.7
2020-02-17T05:40:03,42.805,6.029,0.021,0.002,-0.021,104.0,114.0,101.0,13.4,1505.3,326.6,-0.7,1.8,2470.367,13.32,0.021,84.6
2020-02-17T05:43:03,42.805,6.029,0.019,0.025,-0.029,105.0,116.0,100.0,13.4,1505.3,324.4,-0.7,1.8,2470.335,13.32,0.031,37.2
2020-02-17T05:46:03,42.805,6.029,0.018,0.02,-0.048,104.0,117.0,100.0,13.4,1505.3,327.8,-0.7,1.8,2470.317,13.32,0.026,42.0
2020-02-17T05:49:03,42.805,6.029,0.039,0.008,-0.033,103.0,116.0,100.0,13.4,1505.3,326.2,-0.7,1.8,2470.293,13.32,0.039,78.4
2020-02-17T05:52:03,42.805,6.029,0.04,0.025,-0.033,102.0,118.0,100.0,13.3,1505.3,325.9,-0.7,1.8,2470.291,13.32,0.047,58.0
2020-02-17T05:55:03,42.805,6.029,0.022,0.001,-0.04,104.0,115.0,100.0,13.3,1505.3,323.7,-0.7,1.8,2470.297,13.32,0.022,87.4
2020-02-17T05:58:03,42.805,6.029,0.017,0.018,-0.007,103.0,115.0,101.0,13.4,1505.3,325.4,-0.7,1.9,2470.315,13.32,0.024,43.4
2020-02-17T06:04:03,42.805,6.029,0.015,0.034,-0.019,103.0,116.0,101.0,13.3,1505.2,327.5,-0.8,1.9,2470.356,13.3,0.037,23.8
2020-02-17T06:07:03,42.805,6.029,0.023,0.019,-0.007,104.0,117.0,101.0,13.4,1505.3,325.3,-0.7,1.8,2470.307,13.31,0.029,50.4
2020-02-17T06:10:03,42.805,6.029,0.029,0.024,-0.033,103.0,117.0,101.0,13.3,1505.3,327.2,-0.7,1.8,2470.323,13.31,0.037,50.4
2020-02-17T06:13:03,42.805,6.029,0.018,0.009,-0.042,104.0,118.0,100.0,13.4,1505.3,326.5,-0.7,1.8,2470.341,13.32,0.02,63.4
2020-02-17T06:16:03,42.805,6.029,0.042,0.02,-0.038,104.0,117.0,101.0,13.3,1505.3,325.3,-0.7,1.8,2470.352,13.32,0.046,64.5
2020-02-17T06:19:03,42.805,6.029,0.02,0.023,-0.013,103.0,118.0,100.0,13.4,1505.3,323.3,-0.7,1.8,2470.345,13.32,0.03,41.0
2020-02-17T06:22:03,42.805,6.029,0.008,0.006,-0.028,102.0,119.0,100.0,13.4,1505.3,325.5,-0.7,1.9,2470.326,13.32,0.01,53.1
2020-02-17T06:25:03,42.805,6.029,0.032,0.001,-0.021,103.0,117.0,101.0,13.4,1505.3,327.4,-0.7,1.8,2470.314,13.32,0.032,88.2
2020-02-17T06:28:03,42.805,6.029,0.0,0.011,-0.043,103.0,115.0,100.0,13.4,1505.3,324.7,-0.7,1.8,2470.333,13.32,0.011,0.0
2020-02-17T06:31:03,42.805,6.029,-0.004,0.027,-0.061,102.0,117.0,100.0,13.4,1505.3,327.2,-0.7,1.8,2470.339,13.32,0.027,351.6
2020-02-17T06:34:03,42.805,6.029,0.031,0.013,0.0,103.0,117.0,100.0,13.4,1505.3,326.1,-0.7,1.8,2470.347,13.32,0.033,67.3
2020-02-17T06:37:03,42.805,6.029,0.025,0.008,-0.046,103.0,118.0,102.0,13.4,1505.3,323.7,-0.7,1.8,2470.303,13.32,0.026,72.3
2020-02-17T06:40:03,42.805,6.029,0.037,0.032,-0.023,105.0,119.0,100.0,13.3,1505.3,325.7,-0.7,1.8,2470.247,13.32,0.048,49.1
2020-02-17T06:43:03,42.805,6.029,0.008,0.018,-0.047,103.0,118.0,101.0,13.4,1505.3,328.4,-0.7,1.8,2470.304,13.32,0.019,24.0
2020-02-17T06:46:03,42.805,6.029,0.036,0.021,-0.043,103.0,117.0,100.0,13.3,1505.3,325.0,-0.7,1.8,2470.319,13.32,0.041,59.7
2020-02-17T06:49:03,42.805,6.029,0.029,0.022,-0.014,102.0,116.0,101.0,13.4,1505.3,325.5,-0.7,1.8,2470.319,13.32,0.036,52.8
2020-02-17T06:52:03,42.805,6.029,0.026,0.012,-0.044,103.0,118.0,101.0,13.3,1505.3,325.0,-0.7,1.9,2470.263,13.32,0.028,65.2
2020-02-17T06:55:03,42.805,6.029,0.007,0.0,-0.057,103.0,118.0,101.0,13.4,1505.3,323.8,-0.7,1.8,2470.268,13.32,0.007,90.0
2020-02-17T06:58:03,42.805,6.029,0.026,0.02,0.007,103.0,116.0,101.0,13.3,1505.3,326.7,-0.7,1.8,2470.339,13.32,0.032,52.4
2020-02-17T07:04:03,42.805,6.029,0.03,0.02,-0.022,104.0,117.0,101.0,13.4,1505.2,326.5,-0.8,1.8,2470.337,13.3,0.036,56.3
2020-02-17T07:07:03,42.805,6.029,0.039,0.017,-0.046,104.0,115.0,100.0,13.4,1505.3,322.9,-0.8,1.8,2470.317,13.31,0.042,66.5
2020-02-17T07:10:03,42.805,6.029,0.042,-0.003,-0.05,103.0,119.0,101.0,13.4,1505.3,327.4,-0.7,1.8,2470.312,13.31,0.042,94.1
2020-02-17T07:13:03,42.805,6.029,0.033,0.023,-0.031,103.0,115.0,101.0,13.4,1505.3,323.3,-0.7,1.8,2470.325,13.32,0.04,55.1
2020-02-17T07:16:03,42.805,6.029,0.025,0.01,-0.048,104.0,119.0,101.0,13.4,1505.3,327.6,-0.7,1.8,2470.309,13.32,0.026,68.2
2020-02-17T07:19:03,42.805,6.029,0.02,0.015,-0.038,105.0,118.0,100.0,13.4,1505.3,324.5,-0.7,1.9,2470.314,13.32,0.025,53.1
2020-02-17T07:22:03,42.805,6.029,0.023,0.009,-0.028,105.0,117.0,100.0,13.3,1505.3,325.7,-0.7,1.8,2470.3,13.32,0.024,68.6
2020-02-17T07:25:03,42.805,6.029,0.015,0.021,-0.036,104.0,118.0,102.0,13.4,1505.3,324.8,-0.7,1.9,2470.274,13.32,0.025,35.5
2020-02-17T07:28:03,42.805,6.029,0.04,0.024,-0.039,104.0,114.0,102.0,13.3,1505.3,323.6,-0.7,1.8,2470.293,13.32,0.046,59.0
2020-02-17T07:31:03,42.805,6.029,0.032,0.018,0.02,104.0,116.0,101.0,13.3,1505.3,327.1,-0.7,1.8,2470.254,13.32,0.036,60.6
2020-02-17T07:34:03,42.805,6.029,0.05,0.005,-0.021,102.0,116.0,102.0,13.4,1505.3,325.0,-0.7,1.8,2470.275,13.32,0.05,84.3
2020-02-17T07:37:03,42.805,6.029,0.001,0.018,-0.043,106.0,121.0,100.0,13.4,1505.3,328.4,-0.7,1.8,2470.304,13.32,0.018,3.2
2020-02-17T07:40:03,42.805,6.029,0.027,0.023,-0.047,105.0,118.0,102.0,13.4,1505.3,323.4,-0.7,1.8,2470.253,13.32,0.035,49.6
2020-02-17T07:43:03,42.805,6.029,0.033,0.011,-0.043,103.0,117.0,101.0,13.4,1505.3,326.0,-0.7,1.8,2470.29,13.32,0.034,71.6
2020-02-17T07:46:03,42.805,6.029,0.023,0.044,-0.027,104.0,119.0,101.0,13.4,1505.3,324.7,-0.7,1.8,2470.282,13.32,0.049,27.6
2020-02-17T07:49:03,42.805,6.029,0.042,0.02,0.003,104.0,113.0,101.0,13.4,1505.3,323.8,-0.7,1.8,2470.317,13.32,0.046,64.5
2020-02-17T07:52:03,42.805,6.029,0.032,0.024,-0.03,103.0,116.0,100.0,13.4,1505.3,326.5,-0.7,1.8,2470.251,13.32,0.04,53.1
2020-02-17T07:55:03,42.805,6.029,0.069,0.013,0.009,104.0,114.0,102.0,13.4,1505.3,327.4,-0.7,1.8,2470.284,13.32,0.07,79.3
2020-02-17T07:58:03,42.805,6.029,0.02,0.024,-0.029,103.0,119.0,102.0,13.3,1505.3,325.4,-0.7,1.8,2470.262,13.32,0.031,39.8
2020-02-17T08:04:03,42.805,6.029,0.036,0.004,-0.047,103.0,117.0,100.0,13.4,1505.2,327.8,-0.8,1.8,2470.312,13.3,0.036,83.7
2020-02-17T08:07:03,42.805,6.029,0.032,-0.008,-0.016,102.0,116.0,101.0,13.4,1505.3,324.7,-0.7,1.8,2470.296,13.31,0.032,104.0
2020-02-17T08:10:03,42.805,6.029,0.059,0.011,-0.023,103.0,115.0,101.0,13.4,1505.3,326.5,-0.7,1.9,2470.282,13.31,0.06,79.4
2020-02-17T08:13:03,42.805,6.029,0.027,0.012,-0.032,103.0,116.0,101.0,13.4,1505.3,326.9,-0.7,1.9,2470.279,13.32,0.029,66.0
2020-02-17T08:16:03,42.805,6.029,0.017,0.026,-0.026,104.0,114.0,101.0,13.4,1505.3,323.2,-0.7,1.8,2470.292,13.32,0.031,33.2
2020-02-17T08:19:03,42.805,6.029,0.036,0.018,0.015,104.0,118.0,100.0,13.4,1505.3,325.5,-0.7,1.8,2470.304,13.32,0.04,63.4
2020-02-17T08:22:03,42.805,6.029,0.046,0.002,-0.04,102.0,118.0,100.0,13.4,1505.3,327.7,-0.7,1.8,2470.308,13.32,0.046,87.5
2020-02-17T08:25:03,42.805,6.029,0.034,0.004,-0.049,104.0,113.0,101.0,13.3,1505.3,328.0,-0.7,1.8,2470.278,13.32,0.034,83.3
2020-02-17T08:28:03,42.805,6.029,0.058,0.013,0.027,105.0,116.0,101.0,13.3,1505.3,326.5,-0.7,1.9,2470.273,13.32,0.059,77.4
2020-02-17T08:31:03,42.805,6.029,0.043,0.0,-0.006,104.0,114.0,101.0,13.3,1505.3,324.8,-0.7,1.8,2470.27,13.32,0.043,90.0
2020-02-17T08:34:03,42.805,6.029,0.037,0.006,0.0,104.0,115.0,100.0,13.4,1505.3,325.4,-0.7,1.8,2470.27,13.32,0.037,80.8
2020-02-17T08:37:03,42.805,6.029,0.011,-0.004,-0.015,103.0,116.0,102.0,13.3,1505.3,324.1,-0.7,1.8,2470.278,13.32,0.011,110.0
2020-02-17T08:40:03,42.805,6.029,0.023,0.008,-0.044,104.0,116.0,101.0,13.3,1505.3,327.9,-0.7,1.8,2470.273,13.32,0.024,70.8
2020-02-17T08:43:03,42.805,6.029,0.025,0.019,-0.034,104.0,115.0,100.0,13.3,1505.3,324.5,-0.7,1.8,2470.263,13.32,0.031,52.8
2020-02-17T08:46:03,42.805,6.029,0.042,-0.008,-0.052,105.0,115.0,100.0,13.3,1505.3,323.6,-0.7,1.8,2470.285,13.32,0.042,100.8
2020-02-17T08:49:03,42.805,6.029,0.022,0.027,-0.042,103.0,114.0,101.0,13.4,1505.3,327.5,-0.7,1.8,2470.249,13.32,0.034,39.2
2020-02-17T08:52:03,42.805,6.029,0.066,0.024,0.019,104.0,115.0,101.0,13.4,1505.3,326.5,-0.7,1.8,2470.276,13.32,0.07,70.0
2020-02-17T08:55:03,42.805,6.029,0.024,0.001,0.007,103.0,113.0,100.0,13.4,1505.3,322.8,-0.7,1.8,2470.283,13.32,0.024,87.6
2020-02-17T08:58:03,42.805,6.029,0.034,-0.001,-0.036,103.0,116.0,101.0,13.4,1505.3,325.1,-0.7,1.8,2470.252,13.32,0.034,91.7
2020-02-17T09:04:03,42.805,6.029,0.013,0.015,-0.035,103.0,113.0,101.0,13.4,1505.2,324.5,-0.8,1.8,2470.296,13.3,0.019,40.9
2020-02-17T09:07:03,42.805,6.029,0.033,0.014,-0.044,104.0,116.0,101.0,13.4,1505.3,325.9,-0.7,1.8,2470.288,13.31,0.035,67.0
2020-02-17T09:10:03,42.805,6.029,0.035,-0.006,-0.074,103.0,114.0,102.0,13.3,1505.3,327.6,-0.7,1.9,2470.28,13.31,0.035,99.7
2020-02-17T09:13:03,42.805,6.029,0.036,-0.016,-0.052,103.0,111.0,102.0,13.4,1505.3,324.2,-0.7,1.8,2470.271,13.32,0.039,114.0
2020-02-17T09:16:03,42.805,6.029,0.015,0.008,-0.059,104.0,113.0,102.0,13.4,1505.3,324.7,-0.7,1.8,2470.292,13.32,0.017,61.9
2020-02-17T09:19:03,42.805,6.029,0.035,0.012,-0.019,104.0,116.0,101.0,13.4,1505.3,327.7,-0.7,1.8,2470.326,13.32,0.037,71.1
2020-02-17T09:22:03,42.805,6.029,0.056,0.009,-0.022,103.0,116.0,102.0,13.4,1505.3,325.1,-0.7,1.8,2470.32,13.32,0.056,80.9
2020-02-17T09:25:03,42.805,6.029,0.023,0.026,-0.028,102.0,112.0,102.0,13.4,1505.3,324.7,-0.7,1.9,2470.293,13.32,0.034,41.5
2020-02-17T09:28:03,42.805,6.029,0.046,0.009,-0.057,104.0,116.0,101.0,13.4,1505.3,323.9,-0.7,1.8,2470.313,13.32,0.046,78.9
2020-02-17T09:31:03,42.805,6.029,0.027,0.009,-0.032,104.0,111.0,102.0,13.3,1505.3,328.6,-0.8,1.8,2470.264,13.32,0.028,71.6
2020-02-17T09:34:03,42.805,6.029,0.026,0.008,-0.011,104.0,111.0,102.0,13.4,1505.3,326.9,-0.7,1.8,2470.265,13.32,0.027,72.9
2020-02-17T09:37:03,42.805,6.029,0.045,-0.005,-0.058,104.0,114.0,101.0,13.3,1505.3,324.5,-0.7,1.9,2470.316,13.32,0.045,96.3
2020-02-17T09:40:03,42.805,6.029,0.05,0.007,-0.032,103.0,114.0,102.0,13.4,1505.3,323.9,-0.7,1.8,2470.328,13.32,0.05,82.0
2020-02-17T09:43:03,42.805,6.029,0.046,0.019,-0.008,104.0,113.0,101.0,13.3,1505.3,325.5,-0.7,1.8,2470.28,13.32,0.049,67.6
2020-02-17T09:46:03,42.805,6.029,0.016,0.001,-0.055,105.0,113.0,101.0,13.4,1505.3,323.6,-0.7,1.8,2470.3,13.32,0.016,86.4
2020-02-17T09:49:03,42.805,6.029,0.033,0.007,-0.049,105.0,113.0,101.0,13.3,1505.3,325.8,-0.7,1.9,2470.293,13.32,0.033,78.0
2020-02-17T09:52:03,42.805,6.029,0.046,0.004,-0.049,103.0,112.0,102.0,13.4,1505.3,324.6,-0.7,1.8,2470.307,13.32,0.046,85.0
2020-02-17T09:55:03,42.805,6.029,0.037,0.014,-0.03,104.0,113.0,101.0,13.4,1505.3,324.3,-0.7,1.8,2470.325,13.32,0.039,69.3
2020-02-17T09:58:03,42.805,6.029,0.034,0.0,-0.018,104.0,111.0,102.0,13.4,1505.3,326.5,-0.7,1.8,2470.3,13.32,0.034,90.0
2020-02-17T10:04:03,42.805,6.029,0.032,-0.003,-0.032,104.0,113.0,101.0,13.4,1505.2,323.6,-0.8,1.8,2470.334,13.3,0.032,95.4
2020-02-17T10:07:03,42.805,6.029,0.04,0.018,-0.017,103.0,112.0,102.0,13.4,1505.3,325.8,-0.7,1.8,2470.329,13.31,0.043,65.8